| time (UTC) | temp F | wind direction | speed MPH | gust MPH | rain 1hr in | rain 24hr in | rain mn in | humidity % | barometer mb |
| 20260504151003 | 65 | 222 | 3.0 | 9.0 | 0.00 | 0.00 | 0.00 | 42 | 1012.9 |
| 20260504150525 | 65 | 213 | 3.0 | 8.0 | 0.00 | 0.00 | 0.00 | 44 | 1013.1 |
| 20260504141000 | 62 | 234 | 2.0 | 6.0 | 0.00 | 0.00 | 0.00 | 44 | 1013.4 |
| 20260504140500 | 61 | 214 | 2.0 | 6.0 | 0.00 | 0.00 | 0.00 | 47 | 1013.4 |
| 20260504130500 | 57 | 205 | 2.0 | 6.0 | 0.00 | 0.00 | 0.00 | 51 | 1013.8 |
| 20260504110501 | 40 | 175 | 0.0 | 1.0 | 0.00 | 0.00 | 0.00 | 86 | 1014.3 |
| 20260504100502 | 37 | 120 | 0.0 | 1.0 | 0.00 | 0.00 | 0.00 | 82 | 1014.1 |
| 20260504082002 | 40 | 92 | 0.0 | 1.0 | 0.00 | 0.00 | 0.00 | 78 | 1014.2 |
| 20260504081502 | 40 | 171 | 0.0 | 1.0 | 0.00 | 0.00 | 0.00 | 78 | 1014.2 |
| 20260504081002 | 40 | 146 | 0.0 | 1.0 | 0.00 | 0.00 | 0.00 | 78 | 1014.1 |
| 20260504080502 | 41 | 117 | 0.0 | 1.0 | 0.00 | 0.00 | 0.00 | 78 | 1014.2 |
| 20260504050500 | 43 | 48 | 0.0 | 1.0 | 0.00 | 0.00 | 0.00 | 72 | 1014.1 |
| 20260504050000 | 44 | 38 | 0.0 | 1.0 | 0.00 | 0.00 | 0.00 | 72 | 1014.1 |
| 20260504045500 | 44 | 43 | 0.0 | 1.0 | 0.00 | 0.00 | 0.00 | 72 | 1014.0 |
| 20260504045000 | 44 | 53 | 0.0 | 1.0 | 0.00 | 0.00 | 0.00 | 72 | 1014.0 |
| 20260504044500 | 44 | 52 | 0.0 | 1.0 | 0.00 | 0.00 | 0.00 | 72 | 1014.0 |
| 20260504044000 | 44 | 54 | 0.0 | 1.0 | 0.00 | 0.00 | 0.00 | 71 | 1014.0 |
| 20260504043521 | 44 | 79 | 0.0 | 1.0 | 0.00 | 0.00 | 0.00 | 71 | 1013.9 |
| 20260504043000 | 44 | 89 | 0.0 | 1.0 | 0.00 | 0.00 | 0.00 | 71 | 1013.9 |
| 20260504042500 | 44 | 63 | 0.0 | 1.0 | 0.00 | 0.00 | 0.00 | 72 | 1013.9 |
| 20260504042000 | 44 | 70 | 0.0 | 2.0 | 0.00 | 0.00 | 0.00 | 71 | 1013.9 |
| 20260504041522 | 44 | 69 | 1.0 | 2.0 | 0.00 | 0.00 | 0.00 | 71 | 1013.9 |
| 20260504041000 | 45 | 58 | 0.0 | 2.0 | 0.00 | 0.00 | 0.00 | 70 | 1013.8 |
| 20260504040500 | 45 | 59 | 0.0 | 1.0 | 0.00 | 0.00 | 0.00 | 70 | 1013.8 |
| 20260504040001 | 45 | 70 | 0.0 | 1.0 | 0.00 | 0.00 | 0.00 | 69 | 1013.7 |
| 20260504035500 | 46 | 56 | 1.0 | 2.0 | 0.00 | 0.00 | 0.00 | 69 | 1013.6 |
| 20260504035000 | 46 | 59 | 1.0 | 2.0 | 0.00 | 0.00 | 0.00 | 69 | 1013.5 |
| 20260504034500 | 46 | 94 | 0.0 | 2.0 | 0.00 | 0.00 | 0.00 | 68 | 1013.5 |
| 20260504034000 | 46 | 60 | 0.0 | 2.0 | 0.00 | 0.00 | 0.00 | 67 | 1013.5 |
| 20260504033500 | 46 | 50 | 1.0 | 2.0 | 0.00 | 0.00 | 0.00 | 66 | 1013.4 |
| 20260504033000 | 47 | 54 | 0.0 | 2.0 | 0.00 | 0.00 | 0.00 | 63 | 1013.5 |
| 20260504032522 | 47 | 113 | 0.0 | 1.0 | 0.00 | 0.00 | 0.00 | 62 | 1013.4 |
| 20260504032001 | 47 | 138 | 0.0 | 2.0 | 0.00 | 0.00 | 0.00 | 63 | 1013.4 |
| 20260504031522 | 47 | 141 | 0.0 | 2.0 | 0.00 | 0.00 | 0.00 | 63 | 1013.4 |
| 20260504031001 | 48 | 149 | 0.0 | 1.0 | 0.00 | 0.00 | 0.00 | 63 | 1013.4 |
| 20260504030501 | 48 | 151 | 0.0 | 1.0 | 0.00 | 0.00 | 0.00 | 63 | 1013.3 |
| 20260504030001 | 48 | 127 | 0.0 | 1.0 | 0.00 | 0.00 | 0.00 | 61 | 1013.3 |
| 20260504025501 | 48 | 61 | 0.0 | 1.0 | 0.00 | 0.00 | 0.00 | 60 | 1013.4 |
| 20260504025022 | 48 | 60 | 0.0 | 1.0 | 0.00 | 0.00 | 0.00 | 60 | 1013.4 |
| 20260504024501 | 48 | 68 | 0.0 | 1.0 | 0.00 | 0.00 | 0.00 | 60 | 1013.3 |
| 20260504024022 | 48 | 98 | 0.0 | 1.0 | 0.00 | 0.00 | 0.00 | 59 | 1013.4 |
| 20260504023501 | 49 | 120 | 0.0 | 1.0 | 0.00 | 0.00 | 0.00 | 59 | 1013.4 |
| 20260504023001 | 49 | 340 | 1.0 | 2.0 | 0.00 | 0.00 | 0.00 | 59 | 1013.3 |
| 20260504022501 | 49 | 346 | 1.0 | 2.0 | 0.00 | 0.00 | 0.00 | 59 | 1013.4 |
| 20260504022001 | 49 | 1 | 1.0 | 2.0 | 0.00 | 0.00 | 0.00 | 58 | 1013.3 |
| 20260504021522 | 50 | 25 | 1.0 | 2.0 | 0.00 | 0.00 | 0.00 | 58 | 1013.3 |
| 20260504021001 | 50 | 50 | 1.0 | 2.0 | 0.00 | 0.00 | 0.00 | 59 | 1013.4 |
| 20260504020501 | 50 | 33 | 1.0 | 2.0 | 0.00 | 0.00 | 0.00 | 59 | 1013.3 |
| 20260504020001 | 51 | 13 | 1.0 | 2.0 | 0.00 | 0.00 | 0.00 | 58 | 1013.2 |
| 20260504015501 | 51 | 14 | 1.0 | 2.0 | 0.00 | 0.00 | 0.00 | 57 | 1013.3 |
| 20260504015001 | 51 | 1 | 1.0 | 2.0 | 0.00 | 0.00 | 0.00 | 56 | 1013.3 |
| 20260504014501 | 52 | 336 | 1.0 | 2.0 | 0.00 | 0.00 | 0.00 | 54 | 1013.3 |
| 20260504014023 | 52 | 343 | 1.0 | 2.0 | 0.00 | 0.00 | 0.00 | 53 | 1013.2 |
| 20260504013501 | 52 | 99 | 0.0 | 2.0 | 0.00 | 0.00 | 0.00 | 52 | 1013.3 |
| 20260504013001 | 52 | 204 | 0.0 | 1.0 | 0.00 | 0.00 | 0.00 | 51 | 1013.1 |
| 20260504012501 | 52 | 260 | 0.0 | 2.0 | 0.00 | 0.00 | 0.00 | 51 | 1013.1 |
| 20260504012001 | 53 | 329 | 0.0 | 2.0 | 0.00 | 0.00 | 0.00 | 51 | 1013.1 |
| 20260504011501 | 53 | 350 | 0.0 | 2.0 | 0.00 | 0.00 | 0.00 | 51 | 1013.0 |
| 20260504011001 | 53 | 342 | 0.0 | 2.0 | 0.00 | 0.00 | 0.00 | 49 | 1013.0 |
| 20260504010501 | 54 | 1 | 0.0 | 3.0 | 0.00 | 0.00 | 0.00 | 48 | 1012.9 |
| 20260504010002 | 54 | 22 | 0.0 | 3.0 | 0.00 | 0.00 | 0.00 | 48 | 1012.8 |
| 20260504005501 | 54 | 181 | 0.0 | 1.0 | 0.00 | 0.00 | 0.00 | 46 | 1012.8 |
| 20260504005002 | 55 | 229 | 0.0 | 1.0 | 0.00 | 0.00 | 0.00 | 46 | 1012.7 |
| 20260504004502 | 55 | 271 | 0.0 | 1.0 | 0.00 | 0.00 | 0.00 | 45 | 1012.7 |
| 20260504004002 | 55 | 267 | 0.0 | 2.0 | 0.00 | 0.00 | 0.00 | 44 | 1012.6 |
| 20260504003502 | 56 | 285 | 1.0 | 2.0 | 0.00 | 0.00 | 0.00 | 44 | 1012.6 |
| 20260504003002 | 56 | 306 | 1.0 | 2.0 | 0.00 | 0.00 | 0.00 | 44 | 1012.5 |
| 20260504002501 | 56 | 307 | 0.0 | 2.0 | 0.00 | 0.00 | 0.00 | 43 | 1012.4 |
| 20260504002023 | 57 | 309 | 0.0 | 1.0 | 0.00 | 0.00 | 0.00 | 43 | 1012.3 |
| 20260504001502 | 57 | 291 | 0.0 | 3.0 | 0.00 | 0.00 | 0.00 | 42 | 1012.3 |
| 20260504001002 | 58 | 255 | 1.0 | 3.0 | 0.00 | 0.00 | 0.00 | 41 | 1012.3 |
| 20260504000502 | 58 | 272 | 1.0 | 2.0 | 0.00 | 0.00 | 0.00 | 41 | 1012.2 |
| 20260504000023 | 58 | 286 | 1.0 | 3.0 | 0.00 | 0.00 | 0.00 | 40 | 1012.2 |
| 20260503235502 | 59 | 289 | 2.0 | 6.0 | 0.00 | 0.00 | 0.00 | 39 | 1012.1 |
| 20260503235023 | 59 | 298 | 2.0 | 6.0 | 0.00 | 0.00 | 0.00 | 38 | 1012.1 |
| 20260503234502 | 59 | 303 | 2.0 | 6.0 | 0.00 | 0.00 | 0.00 | 39 | 1012.1 |
| 20260503234023 | 59 | 294 | 2.0 | 6.0 | 0.00 | 0.00 | 0.00 | 38 | 1011.9 |
| 20260503233502 | 60 | 303 | 2.0 | 5.0 | 0.00 | 0.00 | 0.00 | 38 | 1011.9 |
| 20260503233023 | 60 | 302 | 2.0 | 6.0 | 0.00 | 0.00 | 0.00 | 37 | 1011.8 |
| 20260503232502 | 60 | 293 | 3.0 | 10.0 | 0.00 | 0.00 | 0.00 | 37 | 1011.8 |
| 20260503232002 | 60 | 293 | 3.0 | 10.0 | 0.00 | 0.00 | 0.00 | 37 | 1011.8 |
| 20260503231502 | 61 | 293 | 3.0 | 8.0 | 0.00 | 0.00 | 0.00 | 36 | 1011.8 |
| 20260503231002 | 61 | 292 | 3.0 | 6.0 | 0.00 | 0.00 | 0.00 | 36 | 1011.8 |
| 20260503230502 | 61 | 294 | 2.0 | 7.0 | 0.00 | 0.00 | 0.00 | 37 | 1011.8 |
| 20260503230002 | 61 | 297 | 3.0 | 9.0 | 0.00 | 0.00 | 0.00 | 36 | 1011.7 |
| 20260503225503 | 61 | 293 | 3.0 | 11.0 | 0.00 | 0.00 | 0.00 | 35 | 1011.6 |
| 20260503225003 | 61 | 291 | 3.0 | 11.0 | 0.00 | 0.00 | 0.00 | 35 | 1011.6 |
| 20260503224502 | 61 | 301 | 2.0 | 6.0 | 0.00 | 0.00 | 0.00 | 37 | 1011.6 |
| 20260503224002 | 61 | 302 | 4.0 | 12.0 | 0.00 | 0.00 | 0.00 | 35 | 1011.6 |
| 20260503223524 | 61 | 300 | 3.0 | 12.0 | 0.00 | 0.00 | 0.00 | 35 | 1011.6 |
| 20260503223002 | 61 | 291 | 3.0 | 10.0 | 0.00 | 0.00 | 0.00 | 36 | 1011.6 |
| 20260503222502 | 62 | 296 | 3.0 | 11.0 | 0.00 | 0.00 | 0.00 | 34 | 1011.7 |
| 20260503222003 | 62 | 311 | 3.0 | 11.0 | 0.00 | 0.00 | 0.00 | 35 | 1011.6 |
| 20260503221503 | 62 | 308 | 4.0 | 12.0 | 0.00 | 0.00 | 0.00 | 35 | 1011.6 |
| 20260503221003 | 62 | 311 | 4.0 | 12.0 | 0.00 | 0.00 | 0.00 | 35 | 1011.6 |
| 20260503220502 | 62 | 309 | 3.0 | 9.0 | 0.00 | 0.00 | 0.00 | 34 | 1011.5 |
| 20260503220003 | 63 | 296 | 3.0 | 9.0 | 0.00 | 0.00 | 0.00 | 35 | 1011.6 |
| 20260503215503 | 63 | 295 | 3.0 | 10.0 | 0.00 | 0.00 | 0.00 | 35 | 1011.5 |
| 20260503215003 | 62 | 303 | 4.0 | 11.0 | 0.00 | 0.00 | 0.00 | 36 | 1011.6 |
| 20260503214503 | 62 | 316 | 4.0 | 11.0 | 0.00 | 0.00 | 0.00 | 34 | 1011.5 |
| 20260503214003 | 62 | 314 | 3.0 | 8.0 | 0.00 | 0.00 | 0.00 | 35 | 1011.4 |
| 20260503213503 | 61 | 298 | 2.0 | 8.0 | 0.00 | 0.00 | 0.00 | 35 | 1011.5 |
| 20260503213024 | 62 | 301 | 2.0 | 8.0 | 0.00 | 0.00 | 0.00 | 34 | 1011.5 |
| 20260503212503 | 62 | 304 | 3.0 | 8.0 | 0.00 | 0.00 | 0.00 | 33 | 1011.4 |
| 20260503212003 | 62 | 309 | 3.0 | 8.0 | 0.00 | 0.00 | 0.00 | 33 | 1011.4 |
| 20260503211503 | 62 | 310 | 3.0 | 8.0 | 0.00 | 0.00 | 0.00 | 34 | 1011.4 |
| 20260503211003 | 62 | 293 | 3.0 | 8.0 | 0.00 | 0.00 | 0.00 | 35 | 1011.4 |
| 20260503210503 | 62 | 297 | 3.0 | 9.0 | 0.00 | 0.00 | 0.00 | 34 | 1011.5 |
| 20260503210003 | 62 | 296 | 4.0 | 9.0 | 0.00 | 0.00 | 0.00 | 32 | 1011.6 |
| 20260503205503 | 62 | 306 | 4.0 | 9.0 | 0.00 | 0.00 | 0.00 | 33 | 1011.6 |
| 20260503204959 | 62 | 306 | 4.0 | 11.0 | 0.00 | 0.00 | 0.00 | 33 | 1011.6 |
| 20260503204459 | 62 | 304 | 4.0 | 12.0 | 0.00 | 0.00 | 0.00 | 35 | 1011.6 |
| 20260503204000 | 62 | 308 | 4.0 | 12.0 | 0.00 | 0.00 | 0.00 | 32 | 1011.6 |
| 20260503203500 | 62 | 296 | 3.0 | 10.0 | 0.00 | 0.00 | 0.00 | 35 | 1011.7 |
| 20260503202959 | 63 | 295 | 3.0 | 8.0 | 0.00 | 0.00 | 0.00 | 32 | 1011.7 |
| 20260503202500 | 63 | 304 | 4.0 | 10.0 | 0.00 | 0.00 | 0.00 | 32 | 1011.8 |
| 20260503202000 | 63 | 306 | 4.0 | 10.0 | 0.00 | 0.00 | 0.00 | 33 | 1011.9 |
| 20260503201500 | 63 | 311 | 4.0 | 10.0 | 0.00 | 0.00 | 0.00 | 35 | 1011.8 |
| 20260503201000 | 62 | 307 | 4.0 | 10.0 | 0.00 | 0.00 | 0.00 | 34 | 1012.0 |
| 20260503200500 | 63 | 300 | 4.0 | 12.0 | 0.00 | 0.00 | 0.00 | 35 | 1012.0 |
| 20260503200000 | 62 | 303 | 4.0 | 12.0 | 0.00 | 0.00 | 0.00 | 35 | 1012.0 |
| 20260503195521 | 62 | 301 | 4.0 | 10.0 | 0.00 | 0.00 | 0.00 | 34 | 1012.1 |
| 20260503195000 | 62 | 300 | 4.0 | 11.0 | 0.00 | 0.00 | 0.00 | 35 | 1012.2 |
| 20260503194500 | 62 | 302 | 5.0 | 13.0 | 0.00 | 0.00 | 0.00 | 35 | 1012.4 |
| 20260503194000 | 62 | 301 | 4.0 | 13.0 | 0.00 | 0.00 | 0.00 | 36 | 1012.4 |
| 20260503193500 | 62 | 299 | 4.0 | 9.0 | 0.00 | 0.00 | 0.00 | 36 | 1012.4 |
| 20260503193000 | 61 | 301 | 3.0 | 9.0 | 0.00 | 0.00 | 0.00 | 36 | 1012.4 |
| 20260503192521 | 61 | 292 | 3.0 | 9.0 | 0.00 | 0.00 | 0.00 | 35 | 1012.6 |
| 20260503192000 | 62 | 292 | 3.0 | 10.0 | 0.00 | 0.00 | 0.00 | 35 | 1012.6 |
| 20260503191500 | 62 | 312 | 3.0 | 14.0 | 0.00 | 0.00 | 0.00 | 35 | 1012.7 |
| 20260503191000 | 62 | 308 | 4.0 | 14.0 | 0.00 | 0.00 | 0.00 | 38 | 1012.6 |
| 20260503190500 | 61 | 300 | 4.0 | 12.0 | 0.00 | 0.00 | 0.00 | 34 | 1012.6 |
| 20260503190000 | 61 | 304 | 3.0 | 7.0 | 0.00 | 0.00 | 0.00 | 39 | 1012.7 |
| 20260503185522 | 60 | 316 | 3.0 | 7.0 | 0.00 | 0.00 | 0.00 | 35 | 1012.7 |
| 20260503185000 | 62 | 301 | 4.0 | 13.0 | 0.00 | 0.00 | 0.00 | 37 | 1012.7 |
| 20260503184500 | 62 | 294 | 4.0 | 13.0 | 0.00 | 0.00 | 0.00 | 36 | 1012.7 |
| 20260503184000 | 61 | 305 | 4.0 | 10.0 | 0.00 | 0.00 | 0.00 | 37 | 1012.7 |
| 20260503183500 | 61 | 310 | 4.0 | 11.0 | 0.00 | 0.00 | 0.00 | 37 | 1012.8 |
| 20260503183000 | 61 | 310 | 4.0 | 11.0 | 0.00 | 0.00 | 0.00 | 36 | 1012.9 |
| 20260503182522 | 61 | 309 | 4.0 | 12.0 | 0.00 | 0.00 | 0.00 | 39 | 1013.0 |
| 20260503182000 | 61 | 309 | 4.0 | 12.0 | 0.00 | 0.00 | 0.00 | 34 | 1013.0 |
| 20260503181500 | 61 | 301 | 4.0 | 9.0 | 0.00 | 0.00 | 0.00 | 38 | 1012.9 |
| 20260503181001 | 61 | 291 | 4.0 | 9.0 | 0.00 | 0.00 | 0.00 | 37 | 1013.0 |
| 20260503180522 | 61 | 289 | 3.0 | 8.0 | 0.00 | 0.00 | 0.00 | 38 | 1012.9 |
| 20260503180022 | 61 | 293 | 3.0 | 8.0 | 0.00 | 0.00 | 0.00 | 36 | 1013.0 |
| 20260503175501 | 61 | 320 | 3.0 | 9.0 | 0.00 | 0.00 | 0.00 | 42 | 1013.0 |
| 20260503175001 | 60 | 312 | 4.0 | 9.0 | 0.00 | 0.00 | 0.00 | 36 | 1012.9 |
| 20260503174501 | 60 | 292 | 4.0 | 9.0 | 0.00 | 0.00 | 0.00 | 38 | 1013.0 |
| 20260503174001 | 60 | 302 | 4.0 | 9.0 | 0.00 | 0.00 | 0.00 | 40 | 1013.1 |
| 20260503173501 | 60 | 301 | 5.0 | 13.0 | 0.00 | 0.00 | 0.00 | 39 | 1013.1 |
| 20260503173001 | 60 | 298 | 5.0 | 13.0 | 0.00 | 0.00 | 0.00 | 36 | 1013.1 |
| 20260503172501 | 60 | 309 | 4.0 | 12.0 | 0.00 | 0.00 | 0.00 | 39 | 1013.2 |
| 20260503172001 | 59 | 308 | 4.0 | 12.0 | 0.00 | 0.00 | 0.00 | 37 | 1013.1 |
| 20260503171501 | 59 | 290 | 4.0 | 13.0 | 0.00 | 0.00 | 0.00 | 39 | 1013.2 |
| 20260503171001 | 59 | 297 | 4.0 | 13.0 | 0.00 | 0.00 | 0.00 | 38 | 1013.2 |
| 20260503170501 | 58 | 319 | 3.0 | 9.0 | 0.00 | 0.00 | 0.00 | 38 | 1013.3 |